Location: Prairie State College
(41.5244°N, 87.6382°W)
Time: 10:09:30
(UTC-05:00)

ARGOS Delta rocket - Visible Passes

Search period start: 24 April 2017 00:00
Search period end: 04 May 2017 00:00
Orbit: 634 x 840 km, 96.5° (Epoch: 22 April)

Date Brightness Start Highest point End Pass type
(mag) Time Alt. Az. Time Alt. Az. Time Alt. Az.
24 Apr 6.0 01:04:57 10° N 01:06:35 22° N 01:06:35 22° N visible
25 Apr 6.1 00:19:58 10° NNE 00:21:13 18° NNE 00:21:13 18° NNE visible
25 Apr 6.2 01:59:45 10° NNW 02:00:50 14° NW 02:00:50 14° NW visible
26 Apr 5.8 01:13:36 10° N 01:15:28 23° NNW 01:15:28 23° NNW visible
27 Apr 5.9 00:28:25 10° NNE 00:30:06 22° NNE 00:30:06 22° NNE visible
27 Apr 6.3 02:08:50 10° NW 02:09:43 12° NW 02:09:43 12° NW visible
27 Apr 6.3 23:44:10 10° NE 23:44:45 13° NE 23:44:45 13° NE visible
28 Apr 5.7 01:22:17 10° N 01:24:22 24° NNW 01:24:22 24° NNW visible
29 Apr 5.6 00:36:56 10° NNE 00:39:01 27° NNE 00:39:01 27° NNE visible
29 Apr 6.4 02:18:19 10° NW 02:18:37 10° NW 02:18:37 10° NW visible
29 Apr 6.1 23:52:24 10° NE 23:53:39 17° NE 23:53:39 17° NE visible
30 Apr 5.7 01:31:01 10° NNW 01:33:16 23° NW 01:33:16 23° NW visible
01 May 5.4 00:45:28 10° N 00:47:54 32° N 00:47:54 32° N visible
02 May 5.8 00:00:43 10° NNE 00:02:33 21° NE 00:02:33 21° NE visible
02 May 5.8 01:39:49 10° NNW 01:42:10 21° NW 01:42:10 21° NW visible
03 May 5.2 00:54:03 10° N 00:56:48 35° N 00:56:48 35° N visible
